Regional Weather Roundup
Issued by NWS

Home | Current Version | Previous Version | Graphics & Text | Print | Product List | Glossary On
Versions: 1 2 3 4 5 6 7 8 9 10 11 12 13 14 15 16 17 18 19 20 21 22 23 24 25 26 27 28 29 30 31 32 33 34 35 36 37 38 39 40 41 42 43 44 45 46 47 48 49 50
000
ASUS45 KCYS 222110
RWRWY

WYOMING REGIONAL WEATHER ROUNDUP
NATIONAL WEATHER SERVICE CHEYENNE WY
300 PM MDT SUN OCT 22 2017

NOTE:  "FAIR" INDICATES FEW OR NO CLOUDS BELOW 12,000 FEET
WITH NO SIGNIFICANT WEATHER AND/OR OBSTRUCTIONS TO VISIBILITY.

WYZ001-222200-
YELLOWSTONE NATIONAL PARK

CITY           SKY/WX    TMP DP  RH WIND       PRES   REMARKS
LK YELLOWSTONE   N/A     36  33  89 W8G23     30.18F WCI  30
W YELLOWSTONE  NOT AVBL

$$
WYZ002>013-054>058-071-098>099-222200-
NORTHERN WYOMING

CITY           SKY/WX    TMP DP  RH WIND       PRES   REMARKS
JACKSON        CLOUDY    46  33  60 SW18G28   30.24S
CODY           FAIR      57  34  41 W15G28    29.96F
GREYBULL       FAIR      62  28  27 CALM      29.95F
WORLAND        FAIR      58  31  35 SW3       29.97F
SHERIDAN       FAIR      67  29  24 W17G32    29.86S
BUFFALO        FAIR      63  24  22 E17       29.90S
GILLETTE       FAIR      65  28  24 SW23      29.89F
HULETT         FAIR      64  30  27 SW12G24   29.87F
NEWCASTLE      FAIR      61  27  27 CALM      29.93F

$$
WYZ014>020-022>026-101>103-222200-
CENTRAL WYOMING

CITY           SKY/WX    TMP DP  RH WIND       PRES   REMARKS
BIG PINEY      PTSUNNY   54  28  36 NW14      30.27F
PINEDALE       CLOUDY    46  28  49 NW13      30.29S
DUBOIS         CLOUDY    46  32  57 NW18G32   30.15F
LANDER         FAIR      60  27  28 SE6       30.08R
RIVERTON       FAIR      64  28  25 W25G35    30.06S
CASPER         FAIR      59  26  28 W33G44    30.06S
DOUGLAS        FAIR      63  26  24 W26G32    30.00F

$$
WYZ021-027>030-104>119-222200-
SOUTHERN WYOMING

CITY           SKY/WX    TMP DP  RH WIND       PRES   REMARKS
EVANSTON       PTSUNNY   57  29  34 SW21      30.36R
KEMMERER       FAIR      50  23  34 W35G44    30.31F
FORT BRIDGER   FAIR      58  27  30 W36G48    30.33F
ROCK SPRINGS   FAIR      56  26  31 W29G38    30.28R
DIXON          FAIR      56  26  31 SW21G30   30.33F
RAWLINS        FAIR      56  26  31 W37G47    30.21F
SARATOGA       FAIR      52  27  37 W16G30    30.28F
LARAMIE        FAIR      54  20  26 SW35G40   30.18S
CHEYENNE       FAIR      63  19  18 W36G46    30.10F
TORRINGTON     NOT AVBL
PINE BLUFFS    FAIR      68  25  19 W12G28    30.07F

$$



USA.gov is the U.S. government's official web portal to all federal, state and local government web resources and services.